Location: Newark
(49.2191°N, 12.6671°E)
Time: 02:19:57
(UTC+00:00)

Transit 2A - All Passes

Search period start: 21 January 2020 00:00
Search period end: 31 January 2020 00:00
Orbit: 601 x 957 km, 66.7° (Epoch: 20 January)

Date Brightness Start Highest point End Pass type
(mag) Time Alt. Az. Time Alt. Az. Time Alt. Az.
21 Jan - 02:00:03 10° N 02:02:02 13° NNE 02:04:04 10° NE visible
21 Jan - 03:42:01 10° NNW 03:46:24 40° NE 03:51:07 10° ESE visible
21 Jan - 05:25:12 10° NW 05:29:31 36° WSW 05:34:11 10° S visible
21 Jan - 20:09:11 10° SSW 20:13:34 72° ESE 20:17:55 10° NE night (unlit)
21 Jan - 21:53:48 10° W 21:57:10 21° NW 22:00:34 10° NNE night (unlit)
22 Jan - 01:26:25 10° N 01:27:32 11° NNE 01:28:39 10° NNE night (unlit)
22 Jan - 03:08:01 10° NNW 03:12:08 31° NE 03:16:32 10° ESE visible
22 Jan - 04:50:54 10° NW 04:55:28 51° WSW 05:00:27 10° SSE visible
22 Jan - 19:35:15 10° SSW 19:39:30 48° ESE 19:43:42 10° NE night (unlit)
22 Jan - 21:19:05 10° W 21:22:49 27° NW 21:26:37 10° NNE night (unlit)
23 Jan - 02:34:03 10° NNW 02:37:49 24° NE 02:41:49 10° E visible
23 Jan - 04:16:42 10° NW 04:21:22 72° WSW 04:26:31 10° SSE visible
23 Jan - 06:02:21 10° W 06:03:50 11° WSW 06:05:21 10° WSW visible
23 Jan - 19:01:32 10° S 19:05:28 33° ESE 19:09:22 10° NE night (unlit)
23 Jan - 20:44:29 10° WSW 20:48:33 36° NW 20:52:37 10° NNE night (unlit)
23 Jan - 22:31:34 10° NW 22:33:01 11° NNW 22:34:28 10° N night (unlit)
24 Jan - 02:00:07 10° NNW 02:03:27 19° NNE 02:06:58 10° E visible
24 Jan - 03:42:33 10° NW 03:47:16 82° NE 03:52:25 10° SE visible
24 Jan - 05:26:52 10° WNW 05:29:56 17° WSW 05:33:07 10° SSW visible
24 Jan - 18:28:04 10° SSE 18:31:30 22° ESE 18:34:54 10° ENE visible
24 Jan - 20:10:03 10° SW 20:14:19 50° NW 20:18:35 10° NNE night (unlit)
24 Jan - 21:56:19 10° NW 21:58:31 13° NNW 22:00:46 10° N night (unlit)
25 Jan - 01:26:13 10° N 01:29:02 16° NNE 01:32:00 10° ENE night (unlit)
25 Jan - 03:08:28 10° NNW 03:13:06 59° NE 03:18:09 10° SE visible
25 Jan - 04:52:09 10° WNW 04:55:58 24° WSW 05:00:04 10° SSW visible
25 Jan - 17:55:02 10° SE 17:57:35 15° ESE 18:00:06 10° ENE visible
25 Jan - 19:35:46 10° SW 19:40:08 72° NW 19:44:31 10° NNE visible
25 Jan - 21:21:17 10° WNW 21:24:05 16° NNW 21:26:54 10° N night (unlit)
26 Jan - 00:52:22 10° N 00:54:34 13° NNE 00:56:51 10° NE night (unlit)
26 Jan - 02:34:25 10° NNW 02:38:54 43° NE 02:43:44 10° ESE visible
26 Jan - 04:17:40 10° NW 04:21:58 33° WSW 04:26:37 10° S visible
26 Jan - 19:01:38 10° SSW 19:06:01 78° ESE 19:10:23 10° NE visible
26 Jan - 20:46:23 10° W 20:49:40 20° NW 20:53:00 10° NNE night (unlit)
27 Jan - 00:18:38 10° N 00:20:05 11° NNE 00:21:33 10° NE night (unlit)
27 Jan - 02:00:25 10° NNW 02:04:38 33° NE 02:09:11 10° ESE visible
27 Jan - 03:43:21 10° NW 03:47:56 47° WSW 03:52:56 10° SSE visible
27 Jan - 18:27:40 10° SSW 18:31:56 53° ESE 18:36:10 10° NE visible
27 Jan - 20:11:39 10° W 20:15:19 26° NW 20:19:03 10° NNE visible
28 Jan - 01:26:26 10° NNW 01:30:20 26° NE 01:34:30 10° E night (unlit)
28 Jan - 03:09:08 10° NW 03:13:51 68° WSW 03:19:02 10° SSE visible
28 Jan - 04:55:18 10° W 04:56:15 10° WSW 04:57:13 10° WSW visible
28 Jan - 17:53:54 10° S 17:57:54 35° ESE 18:01:52 10° NE visible
28 Jan - 19:37:02 10° WSW 19:41:02 34° NW 19:45:04 10° NNE visible
28 Jan - 21:24:15 10° NW 21:25:33 11° NNW 21:26:53 10° N night (unlit)
29 Jan - 00:52:28 10° NNW 00:55:59 21° NE 00:59:40 10° E night (unlit)
29 Jan - 02:34:58 10° NW 02:39:44 87° ENE 02:44:58 10° SE visible
29 Jan - 04:19:27 10° WNW 04:22:22 16° WSW 04:25:24 10° SW visible
29 Jan - 17:20:23 10° SSE 17:23:55 24° ESE 17:27:26 10° ENE visible
29 Jan - 19:02:34 10° WSW 19:06:47 47° NW 19:11:02 10° NNE visible
29 Jan - 20:48:58 10° NW 20:51:04 13° NNW 20:53:11 10° N visible
30 Jan - 00:18:33 10° N 00:21:35 17° NNE 00:24:43 10° ENE night (unlit)
30 Jan - 02:00:53 10° NNW 02:05:35 64° NE 02:10:44 10° SE night (unlit)
30 Jan - 03:44:39 10° WNW 03:48:25 22° WSW 03:52:26 10° SSW night (unlit)
30 Jan - 16:47:14 10° SSE 16:49:59 16° ESE 16:52:44 10° ENE visible
30 Jan - 18:28:15 10° SW 18:32:35 67° NW 18:36:58 10° NNE visible
30 Jan - 20:13:53 10° WNW 20:16:36 16° NNW 20:19:20 10° N visible
30 Jan - 23:44:41 10° N 23:47:08 14° NNE 23:49:39 10° ENE night (unlit)
